This demonstration page uses our WeatherBlox Daily Observations layout. Learn more.

Left ArrowRight Arrow

39.29038, -76.61219

Hourly Observations for March 4, 2018

Temp ( °F °C ) Dew Point ( °F °C ) Humidity (%) Winds ( mph kmh ) Pressure ( in mb ) Visibility ( mi km ) Precip ( " mm )
12:54 am 00:54 undefined 41 5 25 -3.9 53 53 undefined N/A 30.22 1023 N/A 0.00 0.00
1:54 am 01:54 undefined 41 5 25 -3.9 53 53 undefined N/A 30.21 1023 N/A 0.00 0.00
2:54 am 02:54 undefined 41 5 26 -3.3 55 55 undefined N/A 30.21 1023 N/A 0.00 0.00
3:54 am 03:54 undefined 41 5 25 -3.9 53 53 undefined N/A 30.20 1023 N/A 0.00 0.00
4:54 am 04:54 undefined 40 4.4 25 -3.9 55 55 undefined N/A 30.20 1023 N/A 0.00 0.00
5:54 am 05:54 undefined 39 3.9 25 -3.9 57 57 undefined N/A 30.20 1023 N/A 0.00 0.00
6:54 am 06:54 undefined 38 3.3 25 -3.9 60 60 undefined N/A 30.22 1023 N/A 0.00 0.00
7:54 am 07:54 undefined 38 3.3 25 -3.9 60 60 undefined N/A 30.24 1024 N/A 0.00 0.00
8:54 am 08:54 undefined 41 5 25 -3.9 53 53 undefined N/A 30.26 1025 N/A 0.00 0.00
9:54 am 09:54 undefined 42 5.6 25 -3.9 51 51 undefined N/A 30.27 1025 N/A 0.00 0.00
10:54 am 10:54 undefined 45 7.2 25 -3.9 46 46 undefined N/A 30.25 1024 N/A 0.00 0.00
11:54 am 11:54 undefined 47 8.3 21 -6.1 36 36 undefined N/A 30.24 1024 N/A 0.00 0.00
12:54 pm 12:54 undefined 49 9.4 17 -8.3 28 28 undefined N/A 30.19 1023 N/A 0.00 0.00
1:54 pm 13:54 undefined 50 10 19 -7.2 29 29 undefined N/A 30.18 1022 N/A 0.00 0.00
2:54 pm 14:54 undefined 50 10 16 -8.9 26 26 undefined N/A 30.16 1021 N/A 0.00 0.00
3:54 pm 15:54 undefined 49 9.4 12 -11.1 22 22 undefined N/A 30.13 1020 N/A 0.00 0.00
4:54 pm 16:54 undefined 48 8.9 12 -11.1 23 23 undefined N/A 30.13 1020 N/A 0.00 0.00
5:54 pm 17:54 undefined 48 8.9 9 -12.8 20 20 undefined N/A 30.15 1021 N/A 0.00 0.00
6:54 pm 18:54 undefined 46 7.8 10 -12.2 23 23 undefined N/A 30.16 1021 N/A 0.00 0.00
7:54 pm 19:54 undefined 45 7.2 11 -11.7 25 25 undefined N/A 30.16 1022 N/A 0.00 0.00
8:54 pm 20:54 undefined 43 6.1 12 -11.1 28 28 undefined N/A 30.16 1022 N/A 0.00 0.00
9:54 pm 21:54 undefined 41 5 11 -11.7 29 29 undefined N/A 30.18 1022 N/A 0.00 0.00
10:54 pm 22:54 undefined 39 3.9 9 -12.8 29 29 undefined N/A 30.18 1022 N/A 0.00 0.00
11:54 pm 23:54 undefined 38 3.3 10 -12.2 31 31 undefined N/A 30.18 1022 N/A 0.00 0.00

Powered by AerisWeather